DC1NF-7 Weather Reports


time (UTC)temp
C
wind
direction
speed
KPH
gust
KPH
rain 1hr
cm
rain 24hr
cm
rain mn
cm
humidity
%
barometer
mb
20260506132544 18 227 3.2 9.7 0.00 0.69 0.00 57 1005.8
20260506131537 18 205 4.8 9.7 0.00 0.69 0.00 58 1005.7
20260506130529 18 178 4.8 14.5 0.00 0.69 0.00 57 1005.7
20260506125525 18 183 4.8 9.7 0.00 0.69 0.00 56 1005.9
20260506124520 18 207 1.6 6.4 0.00 0.69 0.00 57 1005.9
20260506123517 19 191 3.2 9.7 0.00 0.69 0.00 56 1005.9
20260506122614 19 163 6.4 12.9 0.00 0.69 0.00 56 1006.0
20260506121614 20 241 3.2 12.9 0.00 0.69 0.00 56 1006.0
20260506120611 18 181 6.4 14.5 0.00 0.69 0.00 59 1006.1
20260506115605 18 176 1.6 9.7 0.00 0.69 0.00 60 1006.1
20260506114605 19 189 3.2 6.4 0.00 0.69 0.00 57 1006.2
20260506113601 18 193 3.2 9.7 0.00 0.69 0.00 60 1006.2
20260506112557 18 184 4.8 6.4 0.00 0.69 0.00 59 1006.2
20260506111549 18 188 3.2 14.5 0.00 0.69 0.00 58 1006.3
20260506110546 18 192 1.6 6.4 0.00 0.69 0.00 61 1006.5
20260506105546 18 83 1.6 6.4 0.00 0.69 0.00 60 1006.5
20260506104542 17 150 3.2 9.7 0.00 0.69 0.00 62 1006.4
20260506103535 18 200 3.2 3.2 0.00 0.69 0.00 61 1006.5
20260506102531 17 245 4.8 9.7 0.00 0.69 0.00 63 1006.7
20260506101530 17 199 3.2 11.3 0.00 0.69 0.00 63 1006.7
20260506100523 17 225 1.6 6.4 0.00 0.69 0.00 65 1006.8
20260506095518 17 179 3.2 9.7 0.00 0.69 0.00 68 1006.8
20260506094617 17 183 6.4 17.7 0.00 0.69 0.00 67 1006.7
20260506093611 17 187 3.2 14.5 0.00 0.69 0.00 67 1006.8
20260506092608 16 248 3.2 6.4 0.00 0.69 0.00 69 1006.8
20260506091608 16 219 1.6 6.4 0.00 0.69 0.00 72 1006.7
20260506090603 16 236 3.2 9.7 0.00 0.69 0.00 72 1007.0
20260506085556 16 215 3.2 6.4 0.00 0.69 0.00 75 1007.0
20260506084552 16 216 4.8 11.3 0.00 0.69 0.00 73 1006.8
20260506083551 16 201 3.2 9.7 0.00 0.69 0.00 74 1006.9
20260506082548 16 158 0.0 6.4 0.00 0.69 0.00 75 1006.9
20260506081542 15 187 3.2 6.4 0.00 0.69 0.00 78 1006.9
20260506080539 14 232 4.8 9.7 0.00 0.69 0.00 82 1006.8
20260506073529 14 174 3.2 9.7 0.00 0.69 0.00 83 1006.7
20260506072525 13 184 4.8 6.4 0.00 0.69 0.00 85 1006.7
20260506071523 14 201 4.8 11.3 0.00 0.69 0.00 83 1006.7
20260506070517 14 180 4.8 6.4 0.00 0.69 0.00 83 1006.6
20260506061558 13 178 1.6 6.4 0.00 0.69 0.00 88 1006.6
20260506060554 13 180 1.6 6.4 0.00 0.69 0.00 88 1006.6
20260506050532 12 0.0 0.0 0.00 0.69 0.00 92 1007.2
20260506044524 11 0.0 0.0 0.00 0.69 0.00 96 1007.0
20260506043520 11 0.0 0.0 0.00 0.69 0.00 97 1007.0
20260506042517 10 0.0 0.0 0.00 0.69 0.00 97 1007.0
20260506041617 11 0.0 0.0 0.00 0.69 0.00 97 1007.0
20260506040614 11 0.0 0.0 0.00 0.69 0.00 97 1007.0
20260506035608 11 203 0.0 3.2 0.00 0.69 0.00 97 1006.9
20260506034612 11 0.0 3.2 0.00 0.69 0.00 97 1006.8
20260506033604 11 196 1.6 3.2 0.00 0.69 0.00 97 1007.0
20260506032557 11 180 4.8 6.4 0.00 0.69 0.00 96 1006.9
20260506031552 11 183 3.2 6.4 0.00 0.69 0.00 97 1007.0
20260506030549 11 187 1.6 3.2 0.00 0.69 0.00 97 1007.0
20260506025549 11 180 3.2 6.4 0.00 0.69 0.00 97 1007.0
20260506024542 11 180 3.2 6.4 0.00 0.69 0.00 96 1007.0
20260506023538 11 198 1.6 6.4 0.00 0.69 0.00 97 1007.2
20260506022534 11 248 0.0 3.2 0.00 0.69 0.00 96 1007.0
20260506021530 11 0.0 0.0 0.00 0.69 0.00 96 1006.9
20260506020525 11 222 1.6 6.4 0.00 0.69 0.00 96 1006.9
20260506015524 11 196 1.6 6.4 0.00 0.69 0.00 96 1006.8
20260506014517 11 200 1.6 6.4 0.00 0.69 0.00 96 1007.0
20260506013614 11 184 3.2 6.4 0.00 0.69 0.00 96 1007.1
20260506012611 11 182 3.2 6.4 0.00 0.69 0.00 96 1007.2
20260506011608 11 184 6.4 11.3 0.00 0.69 0.00 96 1007.3
20260506010604 11 206 1.6 6.4 0.00 0.69 0.00 96 1007.2
20260506005600 11 193 1.6 3.2 0.00 0.69 0.00 96 1007.2
20260506004555 11 0.0 3.2 0.00 0.69 0.00 96 1007.2
20260506003552 11 270 0.0 3.2 0.00 0.69 0.00 96 1007.3
20260506002552 11 205 1.6 3.2 0.00 0.69 0.00 96 1007.5
20260506001545 11 190 1.6 6.4 0.00 0.69 0.00 96 1007.4
20260506000542 11 180 1.6 3.2 0.00 0.69 0.00 96 1007.7
20260505235543 11 180 1.6 3.2 0.00 0.69 0.00 96 1007.6
20260505234536 11 187 3.2 6.4 0.00 0.69 0.00 96 1007.8
20260505233532 11 184 3.2 6.4 0.00 0.69 0.00 96 1007.7
20260505232528 11 184 3.2 6.4 0.00 0.69 0.00 97 1007.7
20260505231524 11 191 3.2 6.4 0.00 0.69 0.00 97 1007.8
20260505230520 12 225 1.6 3.2 0.00 0.69 0.00 96 1007.9
20260505225517 12 194 3.2 6.4 0.00 0.69 0.00 96 1007.9
20260505224614 12 244 3.2 6.4 0.00 0.69 0.00 96 1007.9
20260505223610 12 188 3.2 6.4 0.00 0.69 0.00 96 1008.0
20260505222606 12 228 3.2 9.7 0.00 0.69 0.00 96 1007.9
20260505221610 12 196 3.2 9.7 0.00 0.69 0.00 96 1008.0
20260505220558 12 185 4.8 9.7 0.00 0.69 0.00 96 1007.8
20260505215553 12 196 1.6 6.4 0.00 0.69 0.69 95 1007.9
20260505214552 12 212 1.6 6.4 0.00 0.69 0.69 95 1008.1
20260505213545 12 182 1.6 6.4 0.00 0.69 0.69 95 1008.1
20260505212542 12 198 3.2 6.4 0.00 0.69 0.69 95 1008.1
20260505211539 12 231 1.6 3.2 0.00 0.69 0.69 94 1007.8
20260505210538 12 210 1.6 6.4 0.00 0.69 0.69 95 1007.9
20260505205531 12 248 0.0 3.2 0.00 0.69 0.69 95 1007.8
20260505204529 12 248 0.0 3.2 0.00 0.69 0.69 95 1007.6
20260505203523 12 180 3.2 6.4 0.00 0.69 0.69 95 1007.8
20260505202523 13 202 3.2 6.4 0.00 0.69 0.69 95 1007.5
20260505201520 13 179 4.8 6.4 0.00 0.69 0.69 95 1007.6
20260505200614 13 213 1.6 3.2 0.00 0.69 0.69 95 1007.5
20260505195611 13 180 3.2 6.4 0.00 0.69 0.69 95 1007.6
20260505194607 13 180 1.6 3.2 0.00 0.69 0.69 95 1007.6
20260505193604 13 191 3.2 3.2 0.00 0.69 0.69 94 1007.5
20260505192559 13 222 1.6 6.4 0.00 0.69 0.69 93 1007.4
20260505191555 13 258 3.2 6.4 0.00 0.69 0.69 94 1007.3
20260505190552 13 243 3.2 6.4 0.00 0.69 0.69 94 1007.2
20260505185549 13 250 3.2 6.4 0.00 0.69 0.69 94 1007.2
20260505184545 13 226 3.2 6.4 0.00 0.69 0.69 94 1007.1
20260505183541 13 237 3.2 6.4 0.00 0.69 0.69 94 1007.2
20260505182537 13 237 1.6 6.4 0.00 0.69 0.69 94 1007.1
20260505181536 13 235 3.2 6.4 0.00 0.69 0.69 94 1007.1
20260505180529 13 218 3.2 6.4 0.00 0.69 0.69 94 1007.2
20260505175527 13 217 4.8 9.7 0.00 0.69 0.69 93 1007.1
20260505174520 13 255 3.2 9.7 0.00 0.69 0.69 93 1007.0
20260505173517 13 226 4.8 9.7 0.00 0.69 0.69 93 1006.9
20260505172614 13 230 6.4 11.3 0.00 0.69 0.69 92 1006.8
20260505171611 13 198 4.8 11.3 0.05 0.69 0.69 92 1006.7
20260505170610 13 241 4.8 9.7 0.13 0.69 0.69 92 1006.7
20260505165605 13 233 3.2 11.3 0.36 0.69 0.69 93 1006.7
20260505164559 13 229 4.8 11.3 0.64 0.69 0.69 93 1006.9
20260505163555 13 229 8.0 14.5 0.69 0.69 0.69 94 1006.8
20260505162552 13 226 9.7 17.7 0.69 0.69 0.69 93 1007.0
20260505161552 13 222 9.7 22.5 0.64 0.64 0.64 93 1007.3
20260505160548 13 240 11.3 22.5 0.56 0.56 0.56 93 1007.5
20260505152531 20 242 4.8 6.4 0.00 0.00 0.00 61 1005.9
20260505151529 21 240 6.4 11.3 0.00 0.00 0.00 57 1005.5
20260505150526 21 229 1.6 9.7 0.00 0.00 0.00 53 1005.5
20260505140603 22 106 3.2 6.4 0.00 0.00 0.00 50 1005.6